CRN198 TISX-TJPS

Flight info

Callsign CRN198
Flight time 0h 33m
Altitude 16000
Route TUUNA DCT TAYOG
Aircraft A320/M-SDE3FGHIRWY/LB1

Departure

Time 2026-04-25 21:03
Airport Henry E. Rohlsen Airport (TISX)

Arrival

Time 2026-04-25 21:37
Airport Mercedita International Airport (TJPS)
Time Latitude Longitude Altitude Speed Heading
2026-04-25 20:27 17.69919 -64.79567 87 ft 0 kts 264°
2026-04-25 20:48 17.69920 -64.79544 88 ft 4 kts 275°
2026-04-25 20:48 17.69914 -64.79518 90 ft 4 kts 312°
2026-04-25 20:48 17.69901 -64.79509 89 ft 0 kts 354°
2026-04-25 20:56 17.69928 -64.79511 87 ft 9 kts 354°
2026-04-25 20:56 17.69989 -64.79520 85 ft 8 kts 353°
2026-04-25 20:57 17.70054 -64.79529 85 ft 11 kts 341°
2026-04-25 20:57 17.70073 -64.79604 85 ft 18 kts 263°
2026-04-25 20:57 17.70055 -64.79779 85 ft 27 kts 266°
2026-04-25 20:57 17.70036 -64.79976 84 ft 28 kts 264°
2026-04-25 20:58 17.70016 -64.80182 85 ft 29 kts 263°
2026-04-25 20:58 17.69994 -64.80394 84 ft 27 kts 263°
2026-04-25 20:58 17.69974 -64.80598 84 ft 29 kts 264°
2026-04-25 20:58 17.69956 -64.80785 85 ft 26 kts 264°
2026-04-25 20:59 17.69937 -64.80954 85 ft 24 kts 263°
2026-04-25 20:59 17.69920 -64.81123 85 ft 24 kts 263°
2026-04-25 20:59 17.69903 -64.81303 87 ft 26 kts 264°
2026-04-25 20:59 17.69885 -64.81478 85 ft 20 kts 264°
2026-04-25 21:00 17.69891 -64.81593 88 ft 9 kts 304°
2026-04-25 21:00 17.69907 -64.81604 84 ft 8 kts 332°
2026-04-25 21:00 17.69922 -64.81607 86 ft 0 kts 352°
2026-04-25 21:01 17.69934 -64.81608 84 ft 7 kts 352°
2026-04-25 21:01 17.70006 -64.81611 87 ft 7 kts 22°
2026-04-25 21:02 17.70019 -64.81572 86 ft 5 kts 92°
2026-04-25 21:02 17.70020 -64.81558 86 ft 2 kts 85°
2026-04-25 21:02 17.70043 -64.81312 89 ft 79 kts 83°
2026-04-25 21:02 17.70131 -64.80428 79 ft 160 kts 83°
2026-04-25 21:03 17.70259 -64.79091 368 ft 200 kts 85°
2026-04-25 21:03 17.70440 -64.77543 1029 ft 225 kts 84°
2026-04-25 21:03 17.70616 -64.75829 1863 ft 248 kts 85°
2026-04-25 21:03 17.70783 -64.73976 2643 ft 261 kts 86°
2026-04-25 21:04 17.70956 -64.72067 3570 ft 265 kts 86°
2026-04-25 21:04 17.71130 -64.70135 4589 ft 267 kts 86°
2026-04-25 21:04 17.71663 -64.68260 5549 ft 276 kts 61°
2026-04-25 21:04 17.72982 -64.66773 6408 ft 285 kts 34°
2026-04-25 21:05 17.74847 -64.66033 7284 ft 293 kts
2026-04-25 21:05 17.76878 -64.66214 8143 ft 298 kts 341°
2026-04-25 21:05 17.78671 -64.67301 8996 ft 300 kts 315°
2026-04-25 21:05 17.79846 -64.69056 9814 ft 300 kts 291°
2026-04-25 21:06 17.80564 -64.71145 10378 ft 314 kts 286°
2026-04-25 21:06 17.81051 -64.73462 10620 ft 337 kts 278°
2026-04-25 21:06 17.81448 -64.75964 10870 ft 357 kts 277°
2026-04-25 21:06 17.81711 -64.77719 11231 ft 364 kts 277°
2026-04-25 21:07 17.82222 -64.81228 12145 ft 370 kts 277°
2026-04-25 21:07 17.82612 -64.83910 12872 ft 373 kts 277°
2026-04-25 21:07 17.83009 -64.86602 13599 ft 375 kts 277°
2026-04-25 21:07 17.83417 -64.89323 14296 ft 378 kts 277°
2026-04-25 21:08 17.83830 -64.92058 14981 ft 380 kts 277°
2026-04-25 21:08 17.84245 -64.94800 15643 ft 382 kts 277°
2026-04-25 21:08 17.84661 -64.97561 15916 ft 382 kts 277°
2026-04-25 21:08 17.85077 -65.00339 16010 ft 393 kts 277°
2026-04-25 21:09 17.85954 -65.06208 16016 ft 420 kts 277°
2026-04-25 21:09 17.86411 -65.09244 16016 ft 422 kts 277°
2026-04-25 21:09 17.86869 -65.12286 16016 ft 422 kts 277°
2026-04-25 21:10 17.87326 -65.15335 16016 ft 422 kts 277°
2026-04-25 21:10 17.87776 -65.18372 16016 ft 420 kts 277°
2026-04-25 21:10 17.88224 -65.21410 16016 ft 420 kts 277°
2026-04-25 21:10 17.88669 -65.24438 16016 ft 420 kts 277°
2026-04-25 21:11 17.89118 -65.27473 16016 ft 420 kts 277°
2026-04-25 21:11 17.89567 -65.30500 16016 ft 420 kts 277°
2026-04-25 21:11 17.90016 -65.33529 16018 ft 420 kts 277°
2026-04-25 21:11 17.90460 -65.36515 16021 ft 420 kts 277°
2026-04-25 21:12 17.90912 -65.39551 16023 ft 420 kts 277°
2026-04-25 21:12 17.91365 -65.42589 16026 ft 420 kts 277°
2026-04-25 21:12 17.91814 -65.45621 16028 ft 421 kts 277°
2026-04-25 21:12 17.92111 -65.47631 16029 ft 421 kts 277°
2026-04-25 21:13 17.92707 -65.51695 16030 ft 421 kts 277°
2026-04-25 21:13 17.93150 -65.54725 16031 ft 421 kts 277°
2026-04-25 21:13 17.93594 -65.57772 16032 ft 420 kts 277°
2026-04-25 21:13 17.94038 -65.60808 16032 ft 420 kts 277°
2026-04-25 21:14 17.94485 -65.63844 16033 ft 420 kts 277°
2026-04-25 21:14 17.94925 -65.66839 16033 ft 420 kts 277°
2026-04-25 21:14 17.95371 -65.69878 16033 ft 420 kts 277°
2026-04-25 21:14 17.95814 -65.72908 16032 ft 420 kts 277°
2026-04-25 21:15 17.96255 -65.75943 16032 ft 420 kts 277°
2026-04-25 21:15 17.96694 -65.78979 16032 ft 420 kts 277°
2026-04-25 21:15 17.97131 -65.82010 16032 ft 420 kts 277°
2026-04-25 21:15 17.97570 -65.85050 16032 ft 420 kts 277°
2026-04-25 21:16 17.97949 -65.88086 16029 ft 419 kts 272°
2026-04-25 21:16 17.97902 -65.91139 16030 ft 417 kts 264°
2026-04-25 21:16 17.97666 -65.94180 16032 ft 418 kts 264°
2026-04-25 21:16 17.97428 -65.97219 16031 ft 418 kts 264°
2026-04-25 21:17 17.97191 -66.00259 16029 ft 417 kts 264°
2026-04-25 21:17 17.96956 -66.03297 16029 ft 417 kts 264°
2026-04-25 21:17 17.96720 -66.06341 16028 ft 417 kts 264°
2026-04-25 21:17 17.96484 -66.09383 16027 ft 417 kts 264°
2026-04-25 21:18 17.96246 -66.12422 16027 ft 417 kts 264°
2026-04-25 21:18 17.96011 -66.15457 16026 ft 417 kts 264°
2026-04-25 21:18 17.95776 -66.18499 16030 ft 417 kts 264°
2026-04-25 21:18 17.95542 -66.21493 16026 ft 417 kts 264°
2026-04-25 21:19 17.95305 -66.24535 16026 ft 417 kts 264°
2026-04-25 21:19 17.95068 -66.27571 16026 ft 417 kts 264°
2026-04-25 21:19 17.94829 -66.30607 16025 ft 417 kts 264°
2026-04-25 21:19 17.94589 -66.33641 16024 ft 417 kts 264°
2026-04-25 21:20 17.94349 -66.36667 15958 ft 415 kts 264°
2026-04-25 21:20 17.94268 -66.37690 15926 ft 413 kts 264°
2026-04-25 21:20 17.93957 -66.41650 15910 ft 410 kts 264°
2026-04-25 21:20 17.93719 -66.44633 15895 ft 410 kts 264°
2026-04-25 21:21 17.93482 -66.47617 15900 ft 411 kts 264°
2026-04-25 21:21 17.93243 -66.50612 15901 ft 412 kts 264°
2026-04-25 21:21 17.93003 -66.53616 15907 ft 412 kts 264°
2026-04-25 21:21 17.92761 -66.56618 15910 ft 413 kts 264°
2026-04-25 21:22 17.92526 -66.59557 15793 ft 396 kts 264°
2026-04-25 21:22 17.92300 -66.62409 15282 ft 388 kts 264°
2026-04-25 21:22 17.92075 -66.65220 14659 ft 385 kts 263°
2026-04-25 21:22 17.91848 -66.68013 14006 ft 383 kts 263°
2026-04-25 21:23 17.91623 -66.70788 13361 ft 381 kts 263°
2026-04-25 21:23 17.91403 -66.73528 13062 ft 382 kts 263°
2026-04-25 21:23 17.91178 -66.76311 12987 ft 383 kts 263°
2026-04-25 21:23 17.90950 -66.79110 13004 ft 384 kts 263°
2026-04-25 21:24 17.90725 -66.81839 13001 ft 366 kts 263°
2026-04-25 21:24 17.90514 -66.84432 13003 ft 347 kts 263°
2026-04-25 21:24 17.90318 -66.86902 13003 ft 342 kts 263°
2026-04-25 21:24 17.90119 -66.89501 13008 ft 369 kts 263°
2026-04-25 21:25 17.89864 -66.92233 13001 ft 380 kts 258°
2026-04-25 21:25 17.88966 -66.94825 13003 ft 379 kts 239°
2026-04-25 21:25 17.87270 -66.96936 13004 ft 379 kts 219°
2026-04-25 21:25 17.84982 -66.98303 13003 ft 380 kts 200°
2026-04-25 21:26 17.82400 -66.98764 13006 ft 384 kts 181°
2026-04-25 21:26 17.79772 -66.98269 13005 ft 388 kts 161°
2026-04-25 21:26 17.77424 -66.96855 13004 ft 394 kts 142°
2026-04-25 21:26 17.75630 -66.94676 13006 ft 399 kts 123°
2026-04-25 21:27 17.74543 -66.91987 12980 ft 404 kts 106°
2026-04-25 21:27 17.74279 -66.89100 12793 ft 387 kts 87°
2026-04-25 21:27 17.74818 -66.86444 12657 ft 360 kts 71°
2026-04-25 21:27 17.75670 -66.84081 12490 ft 336 kts 70°
2026-04-25 21:28 17.76477 -66.81823 12004 ft 326 kts 71°
2026-04-25 21:28 17.77264 -66.79599 11642 ft 323 kts 71°
2026-04-25 21:28 17.78034 -66.77406 11157 ft 317 kts 71°
2026-04-25 21:28 17.78790 -66.75247 10525 ft 313 kts 71°
2026-04-25 21:29 17.79538 -66.73114 9913 ft 308 kts 71°
2026-04-25 21:29 17.80275 -66.71027 9496 ft 302 kts 71°
2026-04-25 21:29 17.81004 -66.68966 9154 ft 301 kts 71°
2026-04-25 21:29 17.81736 -66.66902 8760 ft 300 kts 71°
2026-04-25 21:30 17.82461 -66.64851 8356 ft 299 kts 71°
2026-04-25 21:30 17.83182 -66.62808 7978 ft 297 kts 71°
2026-04-25 21:30 17.83894 -66.60784 7580 ft 295 kts 72°
2026-04-25 21:30 17.84362 -66.59453 7347 ft 293 kts 72°
2026-04-25 21:31 17.85296 -66.56797 6772 ft 291 kts 72°
2026-04-25 21:31 17.85996 -66.54807 6382 ft 289 kts 72°
2026-04-25 21:31 17.86692 -66.52839 5994 ft 286 kts 72°
2026-04-25 21:31 17.87381 -66.50887 5614 ft 283 kts 72°
2026-04-25 21:32 17.88059 -66.48971 5230 ft 273 kts 72°
2026-04-25 21:32 17.88705 -66.47149 4875 ft 259 kts 72°
2026-04-25 21:32 17.89316 -66.45418 4536 ft 246 kts 72°
2026-04-25 21:32 17.89905 -66.43796 4220 ft 237 kts 68°
2026-04-25 21:33 17.90932 -66.42482 3907 ft 233 kts 36°
2026-04-25 21:33 17.92398 -66.41920 3630 ft 222 kts
2026-04-25 21:33 17.93891 -66.42176 3217 ft 217 kts 335°
2026-04-25 21:33 17.95049 -66.43125 2845 ft 209 kts 308°
2026-04-25 21:34 17.95932 -66.44313 2495 ft 203 kts 307°
2026-04-25 21:34 17.96785 -66.45457 2168 ft 194 kts 307°
2026-04-25 21:34 17.97597 -66.46545 1836 ft 183 kts 306°
2026-04-25 21:34 17.98174 -66.47688 1553 ft 174 kts 286°
2026-04-25 21:35 17.98539 -66.48893 1337 ft 171 kts 286°
2026-04-25 21:35 17.98898 -66.50053 1107 ft 164 kts 286°
2026-04-25 21:35 17.99243 -66.51168 896 ft 156 kts 286°
2026-04-25 21:35 17.99569 -66.52216 686 ft 146 kts 286°
2026-04-25 21:36 17.99872 -66.53192 485 ft 138 kts 287°
2026-04-25 21:36 18.00163 -66.54127 272 ft 133 kts 287°
2026-04-25 21:36 18.00445 -66.55046 117 ft 132 kts 286°
2026-04-25 21:36 18.00697 -66.55925 38 ft 117 kts 289°
2026-04-25 21:37 18.00876 -66.56483 39 ft 37 kts 288°
2026-04-25 21:37 18.00897 -66.56547 39 ft 11 kts 289°
2026-04-25 21:37 18.00999 -66.56826 38 ft 20 kts 308°
2026-04-25 21:37 18.01075 -66.56839 38 ft 0 kts 12°
2026-04-25 21:38 18.01076 -66.56839 38 ft 1 kts 12°
2026-04-25 21:38 18.01108 -66.56793 38 ft 17 kts 107°
2026-04-25 21:39 18.01057 -66.56645 36 ft 23 kts 110°
2026-04-25 21:39 18.01005 -66.56476 38 ft 25 kts 107°
2026-04-25 21:39 18.00954 -66.56303 36 ft 20 kts 107°
2026-04-25 21:39 18.00978 -66.56239 37 ft 7 kts 20°
2026-04-25 21:40 18.00995 -66.56234 37 ft 0 kts 358°
2026-04-25 21:40 18.00998 -66.56236 37 ft 3 kts 347°
2026-04-25 21:40 18.01029 -66.56265 37 ft 6 kts 316°
2026-04-25 21:40 18.01036 -66.56272 37 ft 2 kts 316°
2026-04-25 21:41 18.01037 -66.56274 37 ft 0 kts 316°